Hourly Data Report for October 23, 2016

All times are specified in Local Standard Time (LST). Add 1 hour to adjust for Daylight Saving Time where and when it is observed.

EUREKA CLIMATE
NUNAVUT

79°59'21.000" N
85°56'02.000" W
10.00 m
2401199
71613
NEK

Download Data

Hourly Data (October 2016)
Hourly Data Report for October 23, 2016
Temp Definition
°C
Dew Point Temp Definition
°C
Rel Hum Definition
%
Wind Dir Definition
10's deg

Wind Spd Definition
km/h
Visibility Definition
km
Stn Press Definition
kPa
Hmdx Definition


Wind Chill Definition


Weather Definition


TIME
00:00 -8.9 -10.0 92 17 37   101.76   -19 LegendNANA
01:00 -8.9 -10.1 91 17 41   101.80   -19 LegendNANA
02:00 -8.8 -10.4 88 16 22   101.90   -17 LegendNANA
03:00 -8.8 -10.6 87 17 30   101.90   -18 LegendNANA
04:00 -8.4 -10.5 85 16 26   101.95   -17 LegendNANA
05:00 -8.9 -10.7 87 11 31   102.01   -18 LegendNANA
06:00 -9.4 -11.2 87 17 28   102.00   -18 LegendNANA
07:00 -10.0 -11.6 88 15 11   102.04   -16 LegendNANA
08:00 -9.6 -11.4 86 18 28   102.04   -19 LegendNANA
09:00 -9.3 -11.2 86 16 18   102.11   -17 LegendNANA
10:00 -9.4 -11.4 85 17 23   102.15   -18 LegendNANA
11:00 -9.5 -11.4 86 17 21   102.22   -17 LegendNANA
12:00 -9.5 -11.7 84 13 16   102.27   -16 LegendNANA
13:00 -9.5 -11.6 85 11 17   102.32   -17 LegendNANA
14:00 -10.4 -12.3 86 11 21   102.34   -19 LegendNANA
15:00 -10.1 -12.1 85 13 24   102.35   -19 LegendNANA
16:00 -10.1 -12.4 84 14 20   102.37   -18 LegendNANA
17:00 -9.7 -11.7 85 15 22   102.35   -18 LegendNANA
18:00 -10.4 -12.9 82 11 19   102.36   -18 LegendNANA
19:00 -10.6 -12.5 86 17 28   102.36   -20 LegendNANA
20:00 -10.9 -12.4 89 13 13   102.36   -17 LegendNANA
21:00 -9.8 -11.7 86 12 18   102.34   -17 LegendNANA
22:00 -8.6 -10.9 84 17 28   102.30   -17 LegendNANA
23:00 -8.5 -11.1 81 14 18   102.27   -16 LegendNANA

Notes on Data Quality.

Legend

  • E = Estimated
  • M = Missing
  • NA = Not Available
  • ‡ = Partner data that is not subject to review by the National Climate Archives
Date modified: